[[{"header":{"parameterUnit":"m.s-1","parameterCategory":1,"la1":30.2991,"la2":30.254,"lo1":-89.0895,"lo2":-89.0444,"dy":0.0017,"dx":0.0017,"nx":28,"ny":28,"refTime":"2024-07-19T03:00:00:Z","depth":0,"parameterNumber":2,"parameterNumberName":"U-component_of_WINDS"},"data":[0,0,0,0,0,0,0,0,0,0,0,0,0,0,0,0,0,0,0,0,0,0,0,0,0,0,0,0,0,0,0,0,0,0,0,0,0,0,0,0,0,0,0,0,0,0,0,0,0,0,0,0,0,0,0,0,0,0,-0.7165,-0.7165,0,-0.7118,-0.7117,-0.7117,-0.7073,-0.7072,-0.7072,-0.7071,-0.7022,-0.7022,-0.7021,0,0,0,0,0,0,0,0,0,0,0,0,0,-0.7219,-0.7218,-0.7165,-0.7165,-0.7164,-0.7118,-0.7117,-0.7117,-0.7073,-0.7072,-0.7072,-0.7071,-0.7023,-0.7022,-0.7021,0,0,0,0,0,0,0,0,0,0,0,0,0,-0.7186,-0.7218,-0.7166,-0.7137,-0.7134,-0.7118,-0.7117,-0.7117,-0.7073,-0.7072,-0.7072,-0.7071,-0.7023,-0.7022,-0.7021,-0.7029,0,0,-0.7017,-0.7016,0,0,0,0,0,0,0,0,-0.7188,-0.7184,-0.7142,-0.7139,-0.7135,-0.7101,-0.7118,-0.7087,-0.7073,-0.7096,-0.7071,-0.707,-0.7049,-0.7046,-0.7038,-0.7027,-0.7025,-0.7017,-0.7016,-0.7015,-0.7015,0,0,0,0,0,0,0,-0.719,-0.7186,-0.7147,-0.7141,-0.7137,-0.7127,-0.7121,-0.7112,-0.7078,-0.7094,-0.7091,-0.7086,-0.7047,-0.704,-0.7037,-0.7024,-0.7017,-0.7016,-0.7015,-0.7014,-0.7018,-0.7019,0,0,0,0,0,0,-0.7197,-0.7188,-0.7148,-0.7145,-0.716,-0.7126,-0.712,-0.7113,-0.7078,-0.7072,-0.7087,-0.7084,-0.7042,-0.7038,-0.7035,-0.7044,-0.7015,-0.7014,-0.7014,-0.7018,-0.7019,-0.702,0,0,0,0,0,0,-0.7198,-0.7194,-0.715,-0.7166,-0.7159,-0.7126,-0.7118,-0.7112,-0.7105,-0.7072,-0.7066,-0.7085,-0.7041,-0.7037,-0.7031,-0.7042,-0.7014,-0.7013,-0.7017,-0.7018,-0.7019,-0.7062,0,0,0,0,0,0,-0.72,-0.7194,-0.7197,-0.7166,-0.7159,-0.7147,-0.7119,-0.7112,-0.7103,-0.7099,-0.7069,-0.7063,-0.704,-0.7033,-0.703,-0.704,-0.7012,-0.7016,-0.7017,-0.7019,-0.7059,-0.7064,-0.7068,0,0,0,0,0,-0.7202,-0.7211,-0.7198,-0.7193,-0.7162,-0.7148,-0.7144,-0.7117,-0.7104,-0.7107,-0.7086,-0.7064,-0.7041,-0.7033,-0.7029,-0.7038,-0.7015,-0.7017,-0.7019,-0.7057,-0.7063,-0.7068,0,0,0,0,0,0,-0.7244,-0.7206,-0.7191,-0.719,-0.7173,-0.7141,-0.7143,-0.7124,-0.711,-0.7107,-0.7074,-0.7068,-0.7067,-0.7051,-0.7044,-0.7045,-0.7025,-0.7026,-0.7056,-0.7061,-0.7066,-0.707,-0.7011,0,0,0,0,0,-0.7253,-0.7245,-0.7212,-0.7214,-0.7206,-0.7177,-0.7169,-0.7151,-0.7131,-0.7123,-0.7102,-0.7084,-0.7073,-0.7066,-0.7053,-0.7056,-0.705,-0.7061,-0.7065,-0.7069,-0.7071,-0.7073,-0.7078,-0.7026,-0.7026,-0.7026,0,0,-0.7271,-0.725,-0.7247,-0.7222,-0.7207,-0.72,-0.7171,-0.7164,-0.7159,-0.7122,-0.7116,-0.71,-0.7078,-0.7077,-0.7076,-0.7065,-0.7084,-0.7072,-0.7075,-0.7075,-0.7075,-0.708,-0.7085,-0.7027,-0.7027,-0.7027,0,0,-0.7302,-0.7285,-0.7285,-0.727,-0.7247,-0.7227,-0.7227,-0.7198,-0.7186,-0.718,-0.7153,-0.7146,-0.7126,-0.7112,-0.7102,-0.7129,-0.7109,-0.7125,-0.715,-0.7152,-0.7156,-0.716,-0.7171,-0.7175,-0.7127,-0.7127,-0.7127,0,-0.7329,-0.7317,-0.7288,-0.7284,-0.7274,-0.7241,-0.7242,-0.7229,-0.7203,-0.7197,-0.7185,-0.7161,-0.7143,-0.7139,-0.7146,-0.7138,-0.7139,-0.7129,-0.7158,-0.7161,-0.7164,-0.7174,-0.7178,-0.7129,-0.7129,-0.7129,-0.7128,0,-0.7351,-0.7344,-0.7347,-0.7323,-0.7314,-0.7312,-0.7283,-0.7277,-0.7259,-0.7241,-0.7235,-0.7213,-0.7196,-0.7193,-0.7175,-0.7187,-0.7182,-0.7164,-0.7143,-0.7172,-0.7181,-0.7184,-0.7132,-0.7132,-0.7131,-0.713,0,0,-0.7408,-0.7368,-0.737,-0.736,-0.7331,-0.7325,-0.7322,-0.7306,-0.7302,-0.7285,-0.7282,-0.7267,-0.7251,-0.724,-0.722,-0.7222,-0.7246,-0.7204,-0.7203,-0.7214,-0.726,-0.7274,-0.7279,-0.7232,-0.7233,-0.7233,-0.7262,0,-0.7435,-0.7428,-0.7402,-0.7403,-0.7396,-0.7365,-0.7362,-0.7345,-0.7328,-0.732,-0.73,-0.7291,-0.727,-0.7263,-0.7263,-0.7243,-0.7255,-0.724,-0.723,-0.723,-0.7239,-0.7283,-0.7298,-0.7326,-0.7265,-0.7266,-0.7266,0,-0.7466,-0.7452,-0.7453,-0.7426,-0.7422,-0.742,-0.7404,-0.7396,-0.7376,-0.7363,-0.7352,-0.733,-0.7325,-0.7305,-0.7299,-0.729,-0.7284,-0.7273,-0.7274,-0.7273,-0.7251,-0.7285,-0.7334,-0.7339,-0.7271,-0.7271,-0.727,0,-0.751,-0.749,-0.7489,-0.748,-0.7448,-0.7448,-0.7435,-0.7414,-0.7406,-0.7392,-0.7387,-0.7372,-0.7364,-0.7353,-0.7328,-0.7315,-0.7326,-0.7303,-0.7316,-0.7317,-0.732,-0.7321,-0.7371,-0.7314,-0.7314,-0.7314,-0.7314,0,-0.7544,-0.7546,-0.7508,-0.7507,-0.7508,-0.7478,-0.7481,-0.7464,-0.7446,-0.7442,-0.7413,-0.741,-0.7376,-0.7369,-0.7349,-0.7348,-0.7344,-0.7334,-0.7329,-0.7337,-0.7339,-0.7334,-0.7332,-0.7315,-0.7315,-0.7315,-0.7314,0,-0.7593,-0.7568,-0.7564,-0.7534,-0.7527,-0.7529,-0.7504,-0.7502,-0.7483,-0.7478,-0.7475,-0.7445,-0.7435,-0.7409,-0.7391,-0.7378,-0.7383,-0.7373,-0.739,-0.7387,-0.7403,-0.7402,-0.7453,-0.7459,-0.7397,-0.7398,-0.7398,0,-0.7618,-0.7619,-0.7589,-0.7585,-0.7573,-0.7565,-0.7557,-0.7528,-0.7521,-0.7499,-0.75,-0.7488,-0.7477,-0.7462,-0.7439,-0.7426,-0.7416,-0.7435,-0.7414,-0.7423,-0.7418,-0.7419,-0.742,-0.744,-0.7441,-0.7441,-0.7442,0,-0.7665,-0.7652,-0.7642,-0.7628,-0.762,-0.7607,-0.7593,-0.759,-0.7557,-0.7551,-0.7541,-0.7532,-0.7515,-0.7504,-0.7488,-0.7474,-0.7453,-0.7448,-0.7451,-0.7461,-0.7472,-0.7468,-0.7405,-0.7448,-0.7447,-0.7447,-0.7446,-0.7446,-0.7703,-0.7703,-0.7683,-0.7673,-0.7659,-0.7647,-0.7644,-0.7625,-0.7616,-0.76,-0.7583,-0.7575,-0.7555,-0.7531,-0.7519,-0.7513,-0.7501,-0.7505,-0.7506,-0.7508,-0.7512,-0.7471,-0.7509,-0.7509,-0.7509,-0.7509,-0.7508,0,-0.775,-0.7736,-0.7727,-0.7708,-0.7701,-0.7681,-0.7664,-0.7659,-0.7653,-0.7636,-0.7626,-0.7615,-0.7604,-0.758,-0.7567,-0.7567,-0.7557,-0.7564,-0.7565,-0.7562,-0.7522,-0.7522,-0.7573,-0.7573,-0.7573,-0.7573,-0.7573,-0.7573,-0.7774,-0.7773,-0.7758,-0.7751,-0.7736,-0.7728,-0.772,-0.7709,-0.7696,-0.7685,-0.7676,-0.766,-0.7641,-0.7626,-0.7616,-0.7609,-0.7606,-0.7617,-0.7608,-0.7571,-0.7565,-0.7559,-0.7559,-0.7617,-0.7617,-0.7649,-0.7649,-0.7649]},{"header":{"parameterUnit":"m.s-1","parameterCategory":1,"la1":30.2991,"la2":30.254,"lo1":-89.0895,"lo2":-89.0444,"dy":0.0017,"dx":0.0017,"nx":28,"ny":28,"refTime":"2024-07-19T03:00:00:Z","depth":0,"parameterNumber":3,"parameterNumberName":"V-component_of_WINDS"},"data":[0,0,0,0,0,0,0,0,0,0,0,0,0,0,0,0,0,0,0,0,0,0,0,0,0,0,0,0,0,0,0,0,0,0,0,0,0,0,0,0,0,0,0,0,0,0,0,0,0,0,0,0,0,0,0,0,0,0,4.2338,4.2338,0,4.2376,4.2376,4.2377,4.2296,4.2293,4.2291,4.2288,4.2327,4.233,4.2333,0,0,0,0,0,0,0,0,0,0,0,0,0,4.2192,4.2195,4.2337,4.2338,4.2338,4.2376,4.2376,4.2377,4.2296,4.2293,4.229,4.2287,4.2326,4.233,4.2334,0,0,0,0,0,0,0,0,0,0,0,0,0,4.2245,4.2196,4.2337,4.2303,4.23,4.2376,4.2376,4.2377,4.2297,4.2293,4.2289,4.2286,4.2324,4.2329,4.2334,4.2445,0,0,4.235,4.2352,0,0,0,0,0,0,0,0,4.2242,4.2251,4.2307,4.2305,4.2302,4.2327,4.2339,4.24,4.2298,4.2298,4.2288,4.2284,4.233,4.2334,4.235,4.2447,4.2448,4.2351,4.2354,4.2356,4.2358,0,0,0,0,0,0,0,4.2239,4.2249,4.2353,4.2308,4.2305,4.2285,4.2288,4.235,4.2336,4.2298,4.2292,4.2298,4.2328,4.2345,4.2351,4.2449,4.2351,4.2355,4.2358,4.236,4.2636,4.264,0,0,0,0,0,0,4.224,4.2246,4.2351,4.2354,4.2262,4.229,4.2294,4.2323,4.2335,4.2333,4.2301,4.2294,4.2338,4.2345,4.2352,4.248,4.2356,4.2361,4.2364,4.2632,4.2637,4.2641,0,0,0,0,0,0,4.2237,4.225,4.235,4.2298,4.2309,4.2297,4.233,4.2326,4.2343,4.2337,4.2334,4.2322,4.2336,4.2344,4.2422,4.248,4.2363,4.2368,4.2627,4.2633,4.2639,4.274,0,0,0,0,0,0,4.2233,4.2249,4.2292,4.23,4.2313,4.2421,4.2334,4.233,4.2353,4.2344,4.2356,4.2354,4.2333,4.2415,4.2427,4.2485,4.2372,4.2621,4.2629,4.2637,4.2731,4.2749,4.2764,0,0,0,0,0,4.2228,4.2319,4.2295,4.2308,4.2366,4.2424,4.2431,4.2406,4.2358,4.24,4.2396,4.2354,4.2472,4.2423,4.2437,4.2497,4.2617,4.2627,4.2636,4.2724,4.2745,4.2763,0,0,0,0,0,0,4.2319,4.232,4.2292,4.2389,4.2407,4.241,4.2463,4.243,4.2461,4.2452,4.2418,4.2421,4.2505,4.2509,4.2454,4.2604,4.2537,4.2549,4.2598,4.2619,4.2635,4.2632,4.2376,0,0,0,0,0,4.235,4.2398,4.2396,4.2481,4.2492,4.2476,4.25,4.2479,4.2496,4.2503,4.2505,4.2523,4.2564,4.2591,4.2629,4.2731,4.2732,4.2779,4.2796,4.2809,4.282,4.2873,4.2893,4.2672,4.2672,4.2672,0,0,4.2415,4.2421,4.2454,4.2499,4.2511,4.256,4.2483,4.2539,4.2575,4.2512,4.2585,4.2587,4.2604,4.2694,4.2734,4.27,4.2881,4.2821,4.2832,4.2836,4.2884,4.2905,4.2924,4.2679,4.2677,4.2676,0,0,4.2558,4.2569,4.264,4.2653,4.2671,4.2659,4.2677,4.2685,4.2683,4.2756,4.2709,4.2751,4.2823,4.2837,4.2853,4.3,4.2962,4.3013,4.3098,4.315,4.3167,4.3182,4.3233,4.3252,4.3024,4.3025,4.3025,0,4.2637,4.271,4.2681,4.2739,4.276,4.2705,4.2776,4.2789,4.2819,4.2834,4.2796,4.2884,4.2892,4.2983,4.3019,4.3035,4.3052,4.3012,4.3167,4.3182,4.3196,4.3244,4.3263,4.3031,4.303,4.3029,4.3029,0,4.2804,4.2855,4.2911,4.294,4.2967,4.3032,4.3011,4.3042,4.3018,4.301,4.3084,4.3091,4.3129,4.3149,4.3126,4.3237,4.3215,4.3173,4.3104,4.3223,4.3268,4.3286,4.3039,4.3037,4.3035,4.3034,0,0,4.3007,4.3018,4.3038,4.305,4.3065,4.3104,4.3165,4.3202,4.3228,4.325,4.3299,4.3361,4.3321,4.334,4.3318,4.3363,4.3477,4.3315,4.3315,4.3344,4.3597,4.3629,4.3651,4.3452,4.3455,4.3458,4.3595,0,4.3147,4.3253,4.3228,4.3332,4.3378,4.3325,4.3378,4.3393,4.3387,4.3424,4.3418,4.3461,4.3406,4.3417,4.346,4.3454,4.3527,4.3444,4.3497,4.3499,4.3493,4.3674,4.3708,4.3837,4.3613,4.3616,4.3618,0,4.3326,4.3354,4.3463,4.3468,4.3487,4.3535,4.3565,4.3602,4.3617,4.3609,4.363,4.3598,4.3658,4.3589,4.367,4.3613,4.3633,4.3634,4.3638,4.3642,4.3565,4.3681,4.3878,4.3897,4.3645,4.3643,4.3641,0,4.3461,4.3526,4.3599,4.3611,4.362,4.3654,4.366,4.3671,4.3693,4.3719,4.3734,4.3767,4.3785,4.381,4.3788,4.3741,4.3872,4.3802,4.3866,4.3867,4.3896,4.3894,4.4098,4.3911,4.3911,4.391,4.391,0,4.362,4.3689,4.3659,4.3704,4.3778,4.3748,4.3822,4.3821,4.3831,4.3874,4.383,4.3872,4.384,4.3878,4.3862,4.393,4.3939,4.3933,4.3928,4.3937,4.3938,4.3949,4.3939,4.3915,4.3914,4.3913,4.3912,0,4.3784,4.3767,4.3842,4.3844,4.3846,4.3901,4.3902,4.3943,4.3933,4.3988,4.3999,4.3984,4.4026,4.4007,4.4052,4.404,4.4128,4.4111,4.4123,4.4118,4.4183,4.4177,4.44,4.4428,4.4224,4.4226,4.4228,0,4.3886,4.3937,4.3944,4.3969,4.3977,4.402,4.4042,4.4014,4.4039,4.4058,4.4097,4.4135,4.4165,4.4235,4.4228,4.4261,4.4244,4.432,4.4249,4.4255,4.4244,4.4241,4.4245,4.4334,4.4336,4.4338,4.434,0,4.4069,4.4058,4.4092,4.4124,4.4152,4.4175,4.4194,4.4218,4.4189,4.422,4.4262,4.4285,4.433,4.4369,4.4398,4.4402,4.4366,4.4362,4.4379,4.4388,4.4392,4.439,4.4161,4.4357,4.4355,4.4354,4.4353,4.4353,4.4204,4.4246,4.4257,4.4296,4.4308,4.4327,4.4365,4.4359,4.4394,4.4429,4.4409,4.4459,4.447,4.4506,4.4515,4.4553,4.4523,4.4547,4.4553,4.4559,4.4567,4.4387,4.4558,4.4557,4.4557,4.4556,4.4556,0,4.4384,4.4388,4.4424,4.4452,4.4483,4.4446,4.4465,4.4493,4.4537,4.4551,4.458,4.4628,4.4665,4.466,4.4694,4.4725,4.4709,4.4734,4.4731,4.4733,4.4593,4.4575,4.4746,4.4746,4.4746,4.4746,4.4746,4.4746,4.4481,4.455,4.454,4.4613,4.4616,4.4664,4.4678,4.4695,4.4705,4.4761,4.4791,4.4787,4.4793,4.4826,4.4858,4.4855,4.4869,4.4901,4.4892,4.4762,4.4743,4.4725,4.4707,4.4904,4.4904,4.5029,4.503,4.5031]}]]